User: anonymous   Login
Location: Unspecified
(0.0000°N, 0.0000°E)
Time: 09:23:09
(UTC+00:00)
Language:

Nova 3 - Orbit

View from above orbital plane
View from above orbital plane
View from above satellite
View from above satellite

Ground track
Ground track

The orbit data is extracted from the following two-line orbital elements,

1 15362U 84110A   17327.40942380 +.00000027 +00000-0 +44462-4 0  9994
2 15362 090.0538 055.5636 0032968 153.2006 252.3764 13.22740978598126
Epoch (UTC): 23 November 2017 09:49:34
Eccentricity: 0.0032968
inclination: 90.0538°
perigee height: 1149 km
apogee height: 1199 km
right ascension of ascending node: 55.5636°
argument of perigee: 153.2006°
revolutions per day: 13.22740978
mean anomaly at epoch: 252.3764°
orbit number at epoch: 59812

The dashed part of the orbit path shows where the satellite is in the earth's shadow,  

DLR